Weather History for Buffalo, WY

Change the Weather History Date:

Tuesday, October 2, 2012

  Actual Average Record
Temperature  
Mean Temperature 67 °F 50 °F  
Max Temperature 81 °F 63 °F 86 °F (2011)
Min Temperature 54 °F 38 °F 28 °F (1999)
Degree Days  
Heating Degree Days 0 15  
Month to date heating degree days 29  
Since 1 July heating degree days 343  
Cooling Degree Days 2 0  
Month to date cooling degree days 0  
Year to date cooling degree days 491  
Growing Degree Days 17 (Base 50)    
Moisture  
Dew Point 27 °F    
Average Humidity 26    
Maximum Humidity 38    
Minimum Humidity 13    
Precipitation  
Precipitation 0.00 in 0.05 in 0.73 in (2013)
Month to date precipitation 0.10  
Year to date precipitation 11.68  
Sea Level Pressure  
Sea Level Pressure 29.74 in    
Wind  
Wind Speed 7 mph (West)    
Max Wind Speed 12 mph    
Max Gust Speed -    
Visibility 10 miles    
Events      
T = Trace of Precipitation, MM = Missing Value Source: NWS Daily Summary

Daily Weather History Graph

Daily Weather History Graph

Search for Another Location

Airport:

Trip Planner

Search our weather history database for the weather conditions in past years. The results will help you decide how hot, cold, wet, or windy it might be!

Date:

Astronomy

Oct. 02, 2012 Rise Set
Actual Time 7:06 AM MDT 6:44 PM MDT
Civil Twilight 6:37 AM MDT 7:13 PM MDT
Nautical Twilight 6:03 AM MDT 7:47 PM MDT
Astronomical Twilight 5:29 AM MDT 8:21 PM MDT
Moon 7:51 PM MDT (10/2) 9:44 AM MDT (10/2)
Length of Visible Light 12h 36m
Length of Day
11h 38m
Waning Gibbous, 94% of the Moon is Illuminated
Oct 2
Waning Gibbous
Oct 8
Last Quarter
Oct 15
New
Oct 21
First Quarter
Oct 29
Full

Hourly Weather History & Observations

Time (MDT) Temp. Dew Point Humidity Pressure Visibility Wind Dir Wind Speed Gust Speed Precip Events Conditions
12:53 AM 55.0 °F 28.9 °F 37% 29.85 in 10.0 mi WSW 5.8 mph - N/A   Clear
1:53 AM 55.9 °F 28.9 °F 36% 29.83 in 10.0 mi SW 6.9 mph - N/A   Clear
2:53 AM 55.9 °F 28.0 °F 34% 29.80 in 10.0 mi SW 5.8 mph - N/A   Clear
3:53 AM 57.0 °F 28.9 °F 34% 29.78 in 10.0 mi WSW 9.2 mph - N/A   Clear
4:53 AM 57.0 °F 27.0 °F 32% 29.78 in 10.0 mi West 10.4 mph - N/A   Clear
6:53 AM 54.0 °F 24.1 °F 31% 29.79 in 10.0 mi West 4.6 mph - N/A   Clear
7:53 AM 57.9 °F 25.0 °F 28% 29.80 in 10.0 mi WSW 6.9 mph - N/A   Clear
8:53 AM 66.9 °F 28.0 °F 23% 29.78 in 10.0 mi Calm Calm - N/A   Clear
9:53 AM 73.9 °F 25.0 °F 16% 29.75 in 10.0 mi East 6.9 mph - N/A   Clear
10:53 AM 77.0 °F 25.0 °F 15% 29.75 in 10.0 mi ENE 9.2 mph - N/A   Clear
11:53 AM 77.0 °F 26.1 °F 15% 29.74 in 10.0 mi ESE 9.2 mph - N/A   Clear
12:53 PM 79.0 °F 25.0 °F 14% 29.71 in 10.0 mi East 6.9 mph - N/A   Clear
1:53 PM 79.0 °F 24.1 °F 13% 29.68 in 10.0 mi Variable 6.9 mph - N/A   Clear
2:53 PM 80.1 °F 25.0 °F 13% 29.67 in 10.0 mi Variable 5.8 mph - N/A   Clear
3:53 PM 79.0 °F 27.0 °F 15% 29.67 in 10.0 mi NE 11.5 mph - N/A   Clear
4:53 PM 77.0 °F 27.0 °F 16% 29.68 in 10.0 mi North 8.1 mph - N/A   Clear
6:53 PM 64.9 °F 27.0 °F 24% 29.72 in 10.0 mi NNW 3.5 mph - N/A   Clear
7:53 PM 57.9 °F 27.0 °F 31% 29.73 in 10.0 mi West 5.8 mph - N/A   Clear
9:53 PM 54.0 °F 28.9 °F 38% 29.73 in 10.0 mi WSW 9.2 mph - N/A   Clear
10:53 PM 55.9 °F 28.9 °F 36% 29.70 in 10.0 mi West 6.9 mph - N/A   Clear
11:53 PM 55.9 °F 28.9 °F 36% 29.67 in 10.0 mi Calm Calm - N/A   Scattered Clouds